| time (UTC) | temp C | wind direction | speed KPH | gust KPH | rain 1hr cm | rain 24hr cm | rain mn cm | humidity % | barometer mb |
| 20260506004503 | 18 | 255 | 4.8 | 11.3 | 0.00 | 0.10 | 0.10 | 70 | 1015.0 |
| 20260506003603 | 18 | 254 | 3.2 | 11.3 | 0.00 | 0.10 | 0.10 | 69 | 1015.0 |
| 20260506002703 | 18 | 236 | 3.2 | 8.0 | 0.00 | 0.10 | 0.10 | 69 | 1014.9 |
| 20260506001803 | 18 | 236 | 3.2 | 14.5 | 0.00 | 0.10 | 0.10 | 70 | 1014.9 |
| 20260506000903 | 18 | 230 | 3.2 | 12.9 | 0.00 | 0.10 | 0.10 | 70 | 1014.7 |
| 20260506000003 | 18 | 218 | 3.2 | 8.0 | 0.00 | 0.10 | 0.10 | 71 | 1014.6 |
| 20260505235403 | 17 | 235 | 3.2 | 6.4 | 0.00 | 0.10 | 0.10 | 72 | 1014.7 |
| 20260505234503 | 17 | 233 | 3.2 | 12.9 | 0.00 | 0.10 | 0.10 | 72 | 1014.8 |
| 20260505233606 | 17 | 268 | 4.8 | 12.9 | 0.00 | 0.10 | 0.10 | 73 | 1014.8 |
| 20260505232703 | 17 | 255 | 3.2 | 11.3 | 0.00 | 0.10 | 0.10 | 72 | 1014.8 |
| 20260505231803 | 17 | 256 | 3.2 | 12.9 | 0.00 | 0.10 | 0.10 | 73 | 1014.8 |
| 20260505230903 | 17 | 258 | 3.2 | 9.7 | 0.00 | 0.10 | 0.10 | 74 | 1014.8 |
| 20260505230003 | 17 | 258 | 3.2 | 12.9 | 0.00 | 0.10 | 0.10 | 74 | 1014.8 |
| 20260505225403 | 17 | 261 | 4.8 | 12.9 | 0.00 | 0.10 | 0.10 | 74 | 1014.7 |
| 20260505224503 | 17 | 255 | 3.2 | 11.3 | 0.00 | 0.10 | 0.10 | 74 | 1014.8 |
| 20260505223603 | 17 | 254 | 3.2 | 8.0 | 0.00 | 0.10 | 0.10 | 74 | 1014.9 |
| 20260505222703 | 17 | 249 | 3.2 | 9.7 | 0.00 | 0.10 | 0.10 | 74 | 1014.9 |
| 20260505221804 | 17 | 221 | 3.2 | 8.0 | 0.00 | 0.10 | 0.10 | 75 | 1014.9 |
| 20260505220903 | 17 | 266 | 3.2 | 11.3 | 0.00 | 0.10 | 0.10 | 76 | 1015.0 |
| 20260505220003 | 16 | 271 | 3.2 | 9.7 | 0.00 | 0.10 | 0.10 | 77 | 1015.0 |
| 20260505215424 | 16 | 253 | 3.2 | 8.0 | 0.00 | 0.10 | 0.10 | 76 | 1015.0 |
| 20260505214503 | 16 | 257 | 3.2 | 14.5 | 0.00 | 0.10 | 0.10 | 77 | 1015.2 |
| 20260505213603 | 16 | 283 | 3.2 | 11.3 | 0.00 | 0.10 | 0.10 | 77 | 1015.2 |
| 20260505212703 | 16 | 245 | 1.6 | 6.4 | 0.00 | 0.10 | 0.10 | 77 | 1015.2 |
| 20260505211803 | 16 | 252 | 3.2 | 6.4 | 0.00 | 0.10 | 0.10 | 77 | 1015.3 |
| 20260505210903 | 16 | 279 | 3.2 | 9.7 | 0.00 | 0.10 | 0.10 | 78 | 1015.3 |
| 20260505210003 | 16 | 250 | 3.2 | 8.0 | 0.00 | 0.10 | 0.10 | 77 | 1015.2 |
| 20260505205403 | 16 | 257 | 3.2 | 9.7 | 0.00 | 0.10 | 0.10 | 77 | 1015.3 |
| 20260505204503 | 16 | 245 | 3.2 | 11.3 | 0.00 | 0.10 | 0.10 | 77 | 1015.4 |
| 20260505203603 | 16 | 234 | 1.6 | 11.3 | 0.00 | 0.10 | 0.10 | 77 | 1015.5 |
| 20260505202703 | 16 | 266 | 3.2 | 11.3 | 0.00 | 0.10 | 0.10 | 77 | 1015.5 |
| 20260505201803 | 16 | 275 | 3.2 | 12.9 | 0.00 | 0.10 | 0.10 | 78 | 1015.5 |
| 20260505200903 | 16 | 274 | 3.2 | 6.4 | 0.00 | 0.10 | 0.10 | 78 | 1015.5 |
| 20260505200003 | 16 | 294 | 3.2 | 8.0 | 0.00 | 0.10 | 0.10 | 78 | 1015.5 |
| 20260505195403 | 16 | 267 | 3.2 | 9.7 | 0.00 | 0.10 | 0.10 | 78 | 1015.6 |
| 20260505194503 | 16 | 249 | 3.2 | 8.0 | 0.00 | 0.10 | 0.10 | 78 | 1015.6 |
| 20260505193603 | 16 | 315 | 3.2 | 8.0 | 0.00 | 0.10 | 0.10 | 79 | 1015.6 |
| 20260505192703 | 15 | 335 | 3.2 | 12.9 | 0.00 | 0.10 | 0.10 | 81 | 1015.7 |
| 20260505191803 | 15 | 288 | 3.2 | 8.0 | 0.00 | 0.10 | 0.10 | 82 | 1015.7 |
| 20260505190903 | 15 | 277 | 0.0 | 4.8 | 0.00 | 0.10 | 0.10 | 81 | 1015.7 |
| 20260505190004 | 15 | 277 | 1.6 | 6.4 | 0.00 | 0.10 | 0.10 | 82 | 1015.7 |
| 20260505185403 | 15 | 278 | 3.2 | 6.4 | 0.00 | 0.10 | 0.10 | 82 | 1015.7 |
| 20260505184503 | 15 | 274 | 3.2 | 9.7 | 0.00 | 0.10 | 0.10 | 83 | 1015.5 |
| 20260505183603 | 15 | 261 | 3.2 | 9.7 | 0.00 | 0.10 | 0.10 | 84 | 1015.5 |
| 20260505182703 | 14 | 278 | 3.2 | 9.7 | 0.00 | 0.10 | 0.10 | 83 | 1015.5 |
| 20260505181803 | 14 | 290 | 4.8 | 11.3 | 0.00 | 0.10 | 0.10 | 83 | 1015.5 |
| 20260505180903 | 14 | 286 | 4.8 | 12.9 | 0.00 | 0.10 | 0.10 | 83 | 1015.3 |
| 20260505180003 | 14 | 273 | 4.8 | 12.9 | 0.00 | 0.10 | 0.10 | 83 | 1015.3 |
| 20260505175424 | 14 | 269 | 3.2 | 12.9 | 0.00 | 0.10 | 0.10 | 83 | 1015.2 |
| 20260505174503 | 14 | 259 | 3.2 | 8.0 | 0.00 | 0.10 | 0.10 | 83 | 1015.1 |
| 20260505173603 | 13 | 259 | 3.2 | 11.3 | 0.00 | 0.10 | 0.10 | 83 | 1015.1 |
| 20260505172703 | 13 | 268 | 3.2 | 11.3 | 0.00 | 0.10 | 0.10 | 84 | 1015.1 |
| 20260505171803 | 13 | 241 | 1.6 | 6.4 | 0.00 | 0.10 | 0.10 | 84 | 1015.1 |
| 20260505170903 | 13 | 258 | 3.2 | 6.4 | 0.00 | 0.10 | 0.10 | 84 | 1015.2 |
| 20260505170003 | 13 | 260 | 1.6 | 6.4 | 0.00 | 0.10 | 0.10 | 84 | 1015.2 |
| 20260505165403 | 13 | 253 | 1.6 | 8.0 | 0.00 | 0.10 | 0.10 | 84 | 1015.1 |
| 20260505164503 | 13 | 246 | 1.6 | 6.4 | 0.00 | 0.10 | 0.10 | 85 | 1014.9 |
| 20260505163603 | 13 | 244 | 3.2 | 9.7 | 0.00 | 0.10 | 0.10 | 85 | 1015.0 |
| 20260505162703 | 13 | 251 | 1.6 | 6.4 | 0.00 | 0.10 | 0.10 | 85 | 1015.0 |
| 20260505161824 | 13 | 246 | 1.6 | 6.4 | 0.00 | 0.10 | 0.10 | 86 | 1015.0 |
| 20260505160924 | 13 | 243 | 1.6 | 6.4 | 0.00 | 0.10 | 0.10 | 86 | 1015.0 |
| 20260505152703 | 12 | 238 | 0.0 | 4.8 | 0.00 | 0.10 | 0.10 | 87 | 1014.8 |
| 20260505151803 | 12 | 230 | 0.0 | 3.2 | 0.00 | 0.10 | 0.10 | 88 | 1014.7 |
| 20260505150903 | 12 | 250 | 1.6 | 4.8 | 0.00 | 0.10 | 0.10 | 88 | 1014.7 |
| 20260505124524 | 11 | 226 | 0.0 | 1.6 | 0.00 | 0.10 | 0.10 | 91 | 1013.7 |
| 20260505123624 | 11 | 224 | 0.0 | 1.6 | 0.00 | 0.10 | 0.10 | 91 | 1013.6 |
| 20260505122724 | 11 | 222 | 0.0 | 3.2 | 0.00 | 0.10 | 0.10 | 91 | 1013.7 |
| 20260505121803 | 11 | 220 | 0.0 | 3.2 | 0.00 | 0.10 | 0.10 | 91 | 1013.8 |
| 20260505120903 | 11 | 227 | 0.0 | 3.2 | 0.00 | 0.10 | 0.10 | 92 | 1014.1 |
| 20260505120003 | 11 | 231 | 0.0 | 1.6 | 0.00 | 0.10 | 0.10 | 91 | 1014.1 |
| 20260505115403 | 11 | 238 | 0.0 | 1.6 | 0.00 | 0.10 | 0.10 | 91 | 1014.1 |
| 20260505114506 | 11 | 260 | 0.0 | 3.2 | 0.00 | 0.10 | 0.10 | 91 | 1014.1 |
| 20260505113603 | 11 | 286 | 0.0 | 3.2 | 0.00 | 0.10 | 0.10 | 91 | 1013.9 |
| 20260505112703 | 11 | 294 | 0.0 | 3.2 | 0.00 | 0.10 | 0.10 | 91 | 1014.1 |
| 20260505111803 | 11 | 294 | 0.0 | 3.2 | 0.00 | 0.10 | 0.10 | 91 | 1014.2 |
| 20260505110903 | 11 | 294 | 0.0 | 1.6 | 0.00 | 0.10 | 0.10 | 91 | 1014.2 |
| 20260505101805 | 12 | 294 | 0.0 | 1.6 | 0.00 | 0.10 | 0.10 | 91 | 1014.2 |
| 20260505100903 | 12 | 294 | 0.0 | 4.8 | 0.00 | 0.10 | 0.10 | 91 | 1014.3 |
| 20260505100003 | 12 | 0 | 0.0 | 1.6 | 0.00 | 0.10 | 0.10 | 91 | 1014.2 |
| 20260505095424 | 12 | 294 | 0.0 | 1.6 | 0.00 | 0.10 | 0.10 | 91 | 1014.0 |
| 20260505094503 | 12 | 294 | 0.0 | 1.6 | 0.00 | 0.10 | 0.10 | 91 | 1014.1 |
| 20260505093603 | 12 | 294 | 0.0 | 1.6 | 0.00 | 0.10 | 0.10 | 90 | 1014.4 |
| 20260505092724 | 12 | 294 | 0.0 | 3.2 | 0.00 | 0.10 | 0.10 | 90 | 1014.6 |
| 20260505091803 | 12 | 294 | 1.6 | 4.8 | 0.00 | 0.10 | 0.10 | 90 | 1014.7 |
| 20260505090903 | 12 | 294 | 1.6 | 6.4 | 0.00 | 0.10 | 0.10 | 90 | 1014.9 |
| 20260505090003 | 12 | 294 | 1.6 | 6.4 | 0.03 | 0.10 | 0.10 | 90 | 1014.7 |
| 20260505085403 | 12 | 294 | 1.6 | 3.2 | 0.03 | 0.10 | 0.10 | 90 | 1014.7 |
| 20260505084524 | 12 | 294 | 1.6 | 4.8 | 0.05 | 0.10 | 0.10 | 90 | 1014.6 |
| 20260505083603 | 12 | 294 | 0.0 | 6.4 | 0.08 | 0.10 | 0.10 | 90 | 1014.5 |
| 20260505082724 | 12 | 300 | 1.6 | 6.4 | 0.10 | 0.10 | 0.10 | 89 | 1014.4 |
| 20260505081803 | 12 | 316 | 1.6 | 6.4 | 0.10 | 0.10 | 0.10 | 89 | 1014.7 |
| 20260505080903 | 12 | 316 | 3.2 | 6.4 | 0.10 | 0.10 | 0.10 | 89 | 1014.9 |
| 20260505080003 | 12 | 315 | 1.6 | 6.4 | 0.08 | 0.08 | 0.08 | 88 | 1014.9 |
| 20260505075403 | 12 | 318 | 1.6 | 6.4 | 0.08 | 0.08 | 0.08 | 88 | 1015.0 |
| 20260505074503 | 12 | 315 | 1.6 | 8.0 | 0.05 | 0.05 | 0.05 | 88 | 1015.0 |
| 20260505073603 | 12 | 316 | 3.2 | 12.9 | 0.03 | 0.03 | 0.03 | 87 | 1015.2 |
| 20260505072703 | 12 | 309 | 3.2 | 9.7 | 0.00 | 0.00 | 0.00 | 86 | 1015.4 |
| 20260505071803 | 13 | 318 | 3.2 | 9.7 | 0.00 | 0.00 | 0.00 | 86 | 1015.2 |
| 20260505070903 | 13 | 316 | 3.2 | 8.0 | 0.00 | 0.00 | 0.00 | 85 | 1014.8 |
| 20260505070003 | 13 | 327 | 3.2 | 8.0 | 0.00 | 0.00 | 0.00 | 84 | 1014.7 |
| 20260505065403 | 13 | 331 | 3.2 | 6.4 | 0.00 | 0.00 | 0.00 | 84 | 1014.7 |
| 20260505064503 | 13 | 332 | 3.2 | 6.4 | 0.00 | 0.00 | 0.00 | 83 | 1014.8 |
| 20260505063603 | 13 | 333 | 3.2 | 8.0 | 0.00 | 0.00 | 0.00 | 82 | 1014.8 |
| 20260505062703 | 13 | 336 | 3.2 | 8.0 | 0.00 | 0.00 | 0.00 | 82 | 1014.7 |
| 20260505061803 | 13 | 339 | 1.6 | 6.4 | 0.00 | 0.00 | 0.00 | 81 | 1014.7 |
| 20260505060903 | 13 | 340 | 1.6 | 4.8 | 0.00 | 0.00 | 0.00 | 81 | 1014.7 |
| 20260505060003 | 13 | 336 | 1.6 | 4.8 | 0.00 | 0.00 | 0.00 | 80 | 1014.7 |
| 20260505055403 | 13 | 319 | 1.6 | 4.8 | 0.00 | 0.00 | 0.00 | 80 | 1014.6 |
| 20260505054503 | 13 | 323 | 1.6 | 4.8 | 0.00 | 0.00 | 0.00 | 80 | 1014.7 |
| 20260505053624 | 13 | 338 | 3.2 | 14.5 | 0.00 | 0.00 | 0.00 | 79 | 1014.4 |
| 20260505052703 | 13 | 320 | 3.2 | 9.7 | 0.00 | 0.00 | 0.00 | 79 | 1014.4 |
| 20260505051803 | 13 | 320 | 3.2 | 8.0 | 0.00 | 0.00 | 0.00 | 78 | 1014.5 |
| 20260505050903 | 13 | 333 | 3.2 | 9.7 | 0.00 | 0.00 | 0.00 | 78 | 1014.7 |
| 20260505040903 | 14 | 329 | 3.2 | 14.5 | 0.00 | 0.00 | 0.00 | 77 | 1014.4 |
| 20260505040003 | 14 | 342 | 3.2 | 8.0 | 0.00 | 0.00 | 0.00 | 77 | 1014.3 |
| 20260505035403 | 14 | 337 | 3.2 | 12.9 | 0.00 | 0.00 | 0.00 | 76 | 1014.2 |
| 20260505034503 | 14 | 344 | 3.2 | 11.3 | 0.00 | 0.00 | 0.00 | 76 | 1014.1 |
| 20260505033603 | 15 | 333 | 3.2 | 6.4 | 0.00 | 0.00 | 0.00 | 75 | 1014.1 |
| 20260505032703 | 15 | 340 | 3.2 | 8.0 | 0.00 | 0.00 | 0.00 | 75 | 1013.9 |
| 20260505031803 | 15 | 331 | 1.6 | 8.0 | 0.00 | 0.00 | 0.00 | 75 | 1013.7 |
| 20260505030903 | 15 | 325 | 1.6 | 9.7 | 0.00 | 0.00 | 0.00 | 76 | 1013.7 |
| 20260505030003 | 15 | 238 | 0.0 | 9.7 | 0.00 | 0.00 | 0.00 | 77 | 1013.5 |
| 20260505025403 | 16 | 211 | 0.0 | 1.6 | 0.00 | 0.00 | 0.00 | 77 | 1013.5 |
| 20260505024503 | 16 | 211 | 0.0 | 1.6 | 0.00 | 0.00 | 0.00 | 77 | 1013.5 |
| 20260505023603 | 16 | 203 | 0.0 | 3.2 | 0.00 | 0.00 | 0.00 | 76 | 1013.5 |
| 20260505022703 | 16 | 194 | 0.0 | 3.2 | 0.00 | 0.00 | 0.00 | 76 | 1013.5 |
| 20260505021803 | 16 | 187 | 0.0 | 3.2 | 0.00 | 0.00 | 0.00 | 75 | 1013.7 |
| 20260505020903 | 16 | 183 | 0.0 | 1.6 | 0.00 | 0.00 | 0.00 | 74 | 1013.8 |
| 20260505020003 | 16 | 181 | 0.0 | 1.6 | 0.00 | 0.00 | 0.00 | 72 | 1013.8 |
| 20260505015424 | 16 | 0 | 0.0 | 0.0 | 0.00 | 0.00 | 0.00 | 71 | 1013.8 |
| 20260505014503 | 16 | 0 | 0.0 | 0.0 | 0.00 | 0.00 | 0.00 | 70 | 1013.8 |
| 20260505013603 | 16 | 0 | 0.0 | 0.0 | 0.00 | 0.00 | 0.00 | 71 | 1013.7 |
| 20260505012703 | 16 | 181 | 0.0 | 1.6 | 0.00 | 0.00 | 0.00 | 71 | 1013.9 |
| 20260505011803 | 16 | 184 | 0.0 | 1.6 | 0.00 | 0.00 | 0.00 | 71 | 1013.9 |
| 20260505010924 | 16 | 183 | 0.0 | 3.2 | 0.00 | 0.00 | 0.00 | 70 | 1014.0 |
| 20260505010003 | 16 | 188 | 0.0 | 3.2 | 0.00 | 0.00 | 0.00 | 71 | 1013.9 |
| 20260505005403 | 16 | 186 | 0.0 | 3.2 | 0.00 | 0.00 | 0.00 | 70 | 1014.0 |